Location: Waco, TX
(31.5480°N, 97.1670°W)
Time: 22:57:09
(UTC-05:00)

ISS - Pass Details

Date: 22 April 2018
Orbit: 403 x 406 km, 51.6° (Epoch: 23 April)

Event Time Altitude Azimuth Distance (km) Brightness Sun altitude
Rises 17:07:28 0° 313° (NW) 2,322 0.5 36.1°
Reaches altitude 10° 17:09:33 10° 312° (NW) 1,460 -0.4 35.6°
Maximum altitude 17:12:48 74° 228° (SW) 423 -2.9 35.0°
Drops below altitude 10° 17:16:04 10° 141° (SE) 1,454 -1.2 34.3°
Sets 17:18:08 0° 140° (SE) 2,310 -0.3 33.8°
